User: anonymous   Login
Location: Derby
(52.9213°N, 1.4761°W)
Time: 02:04:44
(UTC+01:00)
Language:

Tiangong - Orbit

View from above orbital plane
View from above orbital plane
View from above satellite
View from above satellite

Ground track
Ground track

The orbit data is extracted from the following two-line orbital elements,

1 48274U 21035A   24144.62519763  .00055234  00000-0  54078-3 0  9996
2 48274  41.4675 233.0266 0002423  48.2619 311.8428 15.65235219175253
Epoch (UTC): 23 May 2024 15:00:17
Eccentricity: 0.0002423
inclination: 41.4675°
perigee height: 371 km
apogee height: 374 km
right ascension of ascending node: 233.0266°
argument of perigee: 48.2619°
revolutions per day: 15.65235219
mean anomaly at epoch: 311.8428°
orbit number at epoch: 17525

The dashed part of the orbit path shows where the satellite is in the earth's shadow,  

DLR